TIANWANG 1B (TW-1B)
1 40927U 15051C   19106.87427068 +.00012450 +00000-0 +20183-3 0  9992
2 40927 097.1467 152.6518 0006529 248.1957 218.5991 15.52884443200263
TIANWANG 1A (TW-1A)
1 40928U 15051D   19106.74437266 +.00003768 +00000-0 +95152-4 0  9991
2 40928 097.1528 139.4371 0009675 310.2488 115.3875 15.40393169199480
LAPAN A2
1 40931U 15052B   19101.79232639  .00000366  00000-0 -38120-4 0  9997
2 40931   5.9973 180.9298 0011925 284.4257   4.1118 14.76601884191202
LQSAT
1 40958U 15057A   19106.80008036 +.00000030 +00000-0 +12333-4 0  9995
2 40958 097.9026 177.6784 0019772 083.7229 276.6228 14.73073461189544
CHUBUSAT 2
1 41338U 16012B   19106.54671481  .00000347  00000-0  20266-4 0  9996
2 41338  31.0023 186.0559 0013742 198.1819 161.8326 15.00124507173427
CHUBUSAT 3
1 41339U 16012C   19106.52362853 +.00000443 +00000-0 +27656-4 0  9992
2 41339 031.0096 184.3833 0012676 205.8944 154.1039 15.00302560173416
OUFTI-1
1 41458U 16025C   19106.78857520 +.00001531 +00000-0 +82392-4 0  9993
2 41458 098.0993 190.4482 0166189 208.1738 151.0421 15.05570020163111
E-STAR-2
1 41459U 16025D   19106.45797301  .00001200  00000-0  66047-4 0  9990
2 41459  98.0998 189.8036 0167126 210.5684 148.5716 15.05227791163036
AAUSAT 4
1 41460U 16025E   19106.77652627 +.00003454 +00000-0 +17729-3 0  9993
2 41460 098.0969 191.2234 0158227 202.6547 156.7646 15.07029432163199
NUSAT 1
1 41557U 16033B   19106.94416799 +.00001431 +00000-0 +56575-4 0  9992
2 41557 097.4176 194.8183 0014695 153.8608 206.3376 15.27043923160514
BEESAT 4
1 41619U 16040W   19106.63962874 +.00001371 +00000-0 +61325-4 0  9997
2 41619 097.3737 170.0233 0009927 240.6526 119.3719 15.22943435144263
PRATHAM
1 41783U 16059A   19106.81366823 +.00000053 +00000-0 +19684-4 0  9998
2 41783 098.0739 167.7625 0032783 219.8427 140.0368 14.62983849136355
ALSAT 1N
1 41789U 16059G   19106.71922983 +.00000096 +00000-0 +27258-4 0  9991
2 41789 098.0758 169.5288 0027633 209.2359 150.7299 14.64229998136432
NAYIF 1
1 42017U 17008BX  19106.92085007 +.00001545 +00000-0 +64156-4 0  9999
2 42017 097.4082 174.6507 0007209 043.4083 316.7721 15.25334839120357
LILACSAT-1
1 42725U 98067ME  19087.71781172  .15670676  12603-4  45746-3 0  9992
2 42725  51.6064 319.7683 0009359 299.6698  60.5570 16.44549673105565
MAX VALIER SAT
1 42778U 17036P   19106.93730155 +.00001005 +00000-0 +47104-4 0  9991
2 42778 097.3610 165.9670 0014238 086.3455 273.9409 15.21887232100698
